Theta_e
328 329 328 326 327 324 324 325 323 324 327 323 322 323 321 321 315 311 309 312 315 317 317 314 317 319 316 315 319 316 315 323 325 325 326 327 325 325 325 329 332 334 335 335 335 335 335 335 335 335 335 334 334 334 334 334 334 334 334 334 332 330 330 332 332 332 331 330 332 333 334 333 332 332
332 332 327 322 324 328 328 326 327 326 328 327 325 322 319 320 316 314 310 311 316 315 316 316 315 317 316 316 315 315 316 322 323 322 321 325 326 322 321 321 324 329 330 330 332 334 334 334 335 334 334 334 334 334 335 334 334 334 334 330 325 327 331 332 332 332 331 330 332 333 334 334 333 333
328 327 326 328 327 323 321 325 326 324 324 325 324 322 323 322 317 314 314 308 314 317 315 319 319 317 317 317 315 314 314 324 322 320 319 318 320 323 322 319 319 320 320 322 324 326 331 333 334 334 334 334 333 333 333 333 333 333 329 325 323 325 329 331 331 331 331 332 333 335 334 334 333 333
326 327 326 324 324 329 326 321 319 320 321 322 319 316 318 322 321 319 317 315 314 323 320 319 320 320 318 319 323 324 325 325 322 320 317 316 319 322 322 319 318 317 316 317 317 317 323 331 333 334 333 333 333 333 332 329 326 325 324 323 321 324 330 332 331 332 332 332 333 334 334 334 334 334
326 325 325 325 326 327 325 326 328 321 319 319 319 318 316 317 321 320 320 316 315 319 324 324 323 323 322 324 327 324 324 325 326 324 324 325 322 322 323 322 317 316 315 314 314 313 314 320 327 331 331 331 329 322 318 317 317 319 321 320 318 318 324 328 330 331 332 333 334 334 334 334 334 334
326 326 325 324 325 326 325 328 324 323 325 323 321 325 325 323 323 324 321 317 316 316 322 324 323 323 326 322 331 327 327 325 327 327 326 328 326 326 321 320 321 315 315 313 312 312 311 311 314 316 318 317 314 312 311 310 310 310 311 311 311 311 313 319 322 325 327 329 331 332 333 334 334 333
326 326 327 328 327 328 330 326 324 325 325 326 324 324 328 325 322 321 321 319 317 318 319 323 322 327 326 326 325 325 327 327 326 324 326 327 328 326 325 325 327 316 314 312 311 310 310 309 308 309 310 310 309 309 308 307 306 306 306 306 306 306 306 309 313 317 319 321 323 324 325 327 329 329
327 325 323 323 326 326 328 325 323 324 326 326 324 323 324 324 323 322 321 324 324 322 318 321 321 325 326 327 327 328 329 327 326 324 324 328 327 326 326 328 325 321 313 312 311 310 309 308 307 307 307 306 306 306 306 305 305 305 305 305 305 305 305 305 306 309 312 315 316 315 315 314 316 319
328 326 324 325 326 326 327 327 326 326 327 329 326 326 325 324 323 323 325 324 324 321 320 320 322 323 324 325 325 326 324 323 323 324 323 323 323 323 326 327 321 312 310 311 310 310 309 308 307 307 306 305 305 305 305 305 305 305 304 304 304 304 304 304 304 304 305 307 306 305 305 306 309 312
330 328 327 328 328 327 326 325 326 326 326 326 325 324 324 324 324 324 323 324 321 320 320 320 320 322 321 322 323 325 324 322 321 321 322 324 324 325 324 326 326 327 320 317 315 310 309 308 307 307 306 305 305 305 306 306 306 306 306 305 304 304 304 303 303 303 303 303 303 303 303 304 307 310
330 329 329 328 328 327 327 327 325 325 325 324 326 325 324 325 324 322 322 323 321 320 319 319 320 320 322 322 320 324 325 323 322 320 322 321 325 324 323 324 326 327 328 322 316 316 315 314 312 307 306 307 306 307 308 309 310 307 306 304 304 304 304 304 304 303 303 303 302 302 301 302 303 305
328 330 328 328 328 327 324 323 323 323 321 322 322 324 325 325 323 322 321 320 320 319 319 318 318 320 320 320 321 322 322 319 321 323 321 318 319 322 325 322 321 324 324 325 325 318 316 316 315 309 308 309 308 310 309 310 309 308 305 305 304 304 303 303 303 303 303 303 303 302 301 300 300 301
328 329 330 328 325 325 324 322 321 320 320 321 319 320 320 320 321 321 321 321 320 319 318 317 318 318 317 318 318 318 318 317 318 321 321 318 319 319 319 321 323 323 321 321 322 324 327 325 323 317 318 314 310 311 310 310 309 307 305 305 305 304 303 303 303 303 303 302 302 302 302 301 300 300
329 329 327 325 326 325 324 323 319 316 317 318 319 318 318 318 317 318 319 319 319 318 317 317 318 316 316 317 318 318 320 322 321 319 317 314 315 315 314 316 320 321 318 318 316 319 322 320 319 320 321 321 314 311 312 312 310 307 306 305 305 304 303 303 302 302 302 301 301 301 301 300 300 299
323 323 325 326 327 326 327 321 317 314 313 313 314 316 318 318 317 316 315 315 315 315 317 318 318 317 316 317 320 320 320 319 315 314 315 314 312 310 308 308 315 317 317 315 312 313 318 318 316 316 317 318 316 313 311 307 308 306 305 305 304 304 303 303 303 302 302 301 301 301 300 300 300 299
319 320 321 324 326 323 321 320 321 320 315 309 309 309 309 309 309 311 315 313 311 313 313 314 315 316 316 316 318 315 315 313 312 312 312 312 311 309 308 308 308 314 316 312 310 310 313 317 316 313 317 318 317 315 308 306 306 305 305 305 304 304 303 303 303 303 302 302 301 301 300 300 299 298
317 318 319 319 320 322 322 318 315 315 317 314 309 312 311 309 302 295 296 304 313 313 312 312 313 316 315 313 314 315 313 313 310 310 310 311 311 311 309 309 308 314 314 311 308 306 309 312 312 311 318 316 316 310 306 306 306 306 305 305 304 304 303 303 303 303 302 302 301 301 300 299 299 298
319 318 317 317 317 317 315 311 311 312 314 316 317 315 314 315 314 307 296 295 298 308 312 313 313 315 314 313 313 314 314 311 309 309 309 310 309 309 308 310 310 312 316 309 306 304 307 312 311 308 311 314 314 314 307 304 306 305 305 304 304 304 304 303 303 303 303 302 302 301 300 299 298 298
320 319 317 317 317 317 313 307 307 309 309 311 315 318 319 319 317 315 315 315 314 314 312 312 312 312 310 309 312 312 312 311 311 311 310 310 308 309 311 309 309 311 315 311 308 303 305 311 309 308 310 312 311 312 304 305 306 305 305 305 304 304 304 303 303 303 303 302 302 301 301 299 298 298
319 318 318 318 317 315 310 302 296 299 302 310 314 316 316 316 317 317 314 305 307 310 309 307 306 307 303 296 299 299 303 309 309 309 308 310 310 310 308 307 308 307 313 312 308 305 304 308 307 306 309 309 307 309 306 304 306 305 305 305 304 304 304 304 303 303 303 303 302 302 301 299 299 298
320 319 317 316 318 316 309 299 292 292 304 311 311 312 313 315 314 316 311 297 292 292 293 293 292 292 292 294 294 294 294 298 300 304 303 303 308 308 306 307 307 308 311 311 311 307 303 305 306 305 308 307 307 308 307 306 304 304 304 304 304 304 304 303 303 303 303 303 302 302 301 300 299 300
320 312 312 312 314 316 312 293 292 290 306 310 310 309 309 310 311 312 316 312 309 298 294 291 290 291 292 291 292 294 294 294 298 302 300 303 305 305 304 301 303 308 309 309 311 305 303 306 306 303 305 306 307 308 308 307 305 303 302 303 304 303 303 303 303 303 303 303 302 302 301 300 299 300
318 311 312 314 316 317 306 288 290 290 305 312 311 310 308 306 309 310 309 309 312 309 307 308 306 304 301 301 302 305 300 296 300 301 303 305 304 304 304 304 303 302 306 308 312 306 305 305 306 304 302 300 304 307 309 308 307 304 304 304 303 303 303 303 302 302 302 302 300 299 300 300 298 302
308 315 314 314 301 297 292 290 290 291 294 310 311 311 308 307 308 309 307 309 310 310 310 310 311 308 309 308 306 307 307 304 302 302 304 306 306 306 305 305 303 301 303 306 308 305 303 302 299 304 302 298 298 304 307 308 308 306 306 304 302 304 304 303 301 301 301 301 300 298 298 299 299 301
307 308 311 313 302 293 292 292 289 291 290 295 307 310 309 310 307 300 306 308 312 308 308 309 310 310 310 310 308 307 309 310 306 304 305 308 309 307 305 304 303 302 306 305 304 303 300 301 298 301 302 301 301 301 303 305 306 306 308 306 303 303 302 301 301 302 300 299 297 296 297 298 299 300
309 310 310 314 304 294 293 291 291 291 290 289 297 307 301 299 293 301 305 306 307 308 307 305 305 307 307 307 309 310 311 312 311 310 309 308 309 309 309 306 304 302 306 306 300 305 302 299 298 298 300 301 301 301 300 302 305 306 305 306 303 304 301 301 301 302 301 299 299 297 298 299 299 296
310 310 313 308 297 291 291 291 291 291 290 291 295 296 296 296 294 297 303 305 306 306 306 306 306 305 306 305 305 306 307 310 312 312 312 312 311 310 310 310 308 306 308 307 303 305 302 301 302 299 298 299 298 298 299 298 301 304 303 301 301 302 303 301 300 302 301 301 299 300 299 299 299 298
309 310 311 304 295 293 292 290 290 290 291 293 294 294 294 294 296 300 303 304 305 305 305 305 305 305 305 305 305 305 306 307 311 312 312 310 310 310 311 310 308 307 306 306 305 305 306 302 302 302 302 300 299 297 296 299 301 300 299 301 302 302 302 301 300 301 303 301 300 301 299 298 299 297
309 301 295 294 294 295 295 294 292 292 293 292 291 291 292 296 299 301 303 304 305 304 304 305 305 305 305 305 306 307 307 308 309 312 312 311 310 310 310 309 308 308 310 310 307 306 305 305 304 303 302 301 300 299 299 297 298 299 299 298 298 301 303 303 302 300 301 298 300 301 299 297 296 297
294 294 295 295 296 297 298 301 301 301 302 298 297 295 296 299 301 302 303 304 305 304 305 304 304 304 304 305 305 307 309 308 306 306 306 307 307 309 307 307 306 307 308 309 309 308 306 304 304 304 302 301 301 300 299 298 297 299 299 299 299 301 299 300 301 301 301 296 296 299 300 299 299 299
301 301 301 300 296 296 296 296 297 297 299 302 305 306 305 303 303 304 305 305 306 305 304 303 304 304 304 305 305 304 304 304 305 307 306 305 305 304 305 305 304 305 307 308 309 308 307 306 305 304 302 302 302 300 301 301 298 297 298 299 299 295 300 302 301 300 300 299 298 298 301 300 300 300
299 300 299 300 304 305 305 306 306 306 308 307 306 308 308 307 306 307 308 309 307 307 306 306 306 304 304 303 304 304 304 304 305 307 307 305 304 304 304 302 302 303 304 306 308 308 306 306 305 305 305 303 300 301 301 299 298 298 298 300 301 301 303 300 300 299 300 299 299 298 303 300 298 299
298 300 301 302 304 305 303 302 302 301 302 302 302 303 303 305 306 305 305 304 305 304 303 304 304 303 303 304 303 302 303 303 304 305 305 306 305 305 304 302 301 302 302 303 304 304 306 305 305 306 307 305 303 303 301 298 298 299 298 299 300 300 300 301 301 301 300 298 299 298 297 300 301 301
296 300 302 302 300 300 301 300 300 300 301 301 301 302 299 302 304 304 303 302 303 304 304 303 302 302 302 302 302 302 302 301 302 303 301 304 305 303 302 302 302 301 298 299 301 302 303 305 306 306 306 306 306 304 304 301 299 300 299 300 300 298 299 301 300 301 302 300 298 296 297 297 300 302
301 301 300 300 300 301 301 300 300 300 300 300 300 301 301 302 301 300 301 302 302 302 302 303 302 302 301 301 301 300 300 300 301 303 303 304 303 302 301 300 300 301 300 299 300 301 302 302 302 302 303 303 302 303 302 303 301 301 300 299 300 298 299 301 300 301 301 301 299 297 298 299 301 302
299 301 300 300 301 300 299 299 299 299 299 299 299 299 298 298 299 300 300 301 302 301 301 301 299 300 299 298 298 298 297 297 299 299 299 300 300 301 302 302 301 301 301 299 298 300 301 301 301 299 298 298 298 296 299 302 300 301 298 299 301 300 300 301 300 300 300 299 300 298 297 297 298 301
298 299 299 299 298 298 298 298 299 298 298 298 298 298 298 297 298 298 298 298 298 298 297 298 297 296 297 297 297 294 297 297 297 296 296 297 298 298 299 299 299 299 299 300 300 300 301 299 299 297 295 294 294 290 293 303 301 301 302 299 300 301 301 301 300 298 299 299 300 298 297 296 297 301
298 298 298 297 297 298 297 298 298 298 298 297 297 297 297 297 297 297 298 297 296 296 296 296 296 295 296 295 296 297 298 299 297 296 295 296 296 295 295 296 296 298 299 300 300 301 300 299 298 297 295 292 290 289 290 294 296 298 300 301 299 299 300 300 297 296 297 299 298 300 299 298 299 301
298 297 297 297 297 297 297 297 297 297 297 297 296 296 296 296 296 296 296 295 296 295 296 295 294 294 294 295 294 294 294 295 296 296 296 296 296 295 295 295 294 295 294 294 295 298 299 298 298 297 297 296 294 294 296 290 289 291 301 298 301 299 298 298 296 297 297 298 298 299 301 301 302 298
297 297 297 297 297 297 297 297 297 297 296 297 297 297 296 296 296 296 296 295 295 295 295 294 294 294 294 294 293 294 293 293 292 293 293 294 294 293 294 294 293 293 293 293 293 294 294 295 298 298 298 298 298 299 297 290 288 294 296 297 297 299 297 299 297 296 294 296 299 295 294 298 296 299
296 296 297 297 297 297 296 296 296 296 296 296 296 296 296 297 296 295 296 295 294 295 294 295 295 294 294 294 294 294 292 291 293 293 293 293 291 291 291 289 292 293 293 292 293 293 294 298 296 293 297 299 298 299 292 289 287 288 288 292 293 292 293 298 299 297 296 296 295 294 293 292 292 294
295 295 296 296 296 295 296 295 295 295 295 295 295 295 295 295 294 295 294 292 293 293 294 294 295 294 294 295 295 292 292 291 292 292 292 292 292 291 290 291 292 292 292 290 292 293 295 298 296 295 298 297 295 289 288 288 287 287 288 291 293 294 292 292 294 296 299 297 295 289 288 289 292 290
293 294 295 295 295 295 295 295 295 295 294 294 294 294 294 293 293 292 291 290 290 290 290 291 291 291 291 292 293 293 292 291 292 293 292 291 291 291 290 291 292 292 292 292 293 293 294 295 296 296 297 295 290 290 287 287 288 288 288 287 290 290 297 295 293 292 293 296 295 295 296 291 288 286
293 292 293 294 294 294 294 294 294 294 294 294 294 293 292 291 289 289 288 288 288 288 288 287 287 287 288 289 290 290 291 291 292 291 291 290 291 291 290 290 290 291 291 291 292 292 293 293 294 295 294 290 292 289 287 287 287 288 288 288 289 290 288 290 295 296 293 292 292 292 293 293 294 294
292 293 292 293 293 293 293 293 293 293 293 293 293 292 290 289 287 286 285 285 286 287 286 286 285 285 286 287 287 288 289 291 292 291 291 290 290 290 290 291 289 290 290 291 290 290 291 292 292 293 292 290 291 291 289 288 287 287 287 287 286 285 285 287 288 287 289 290 293 294 293 293 292 292
Wind_Speed
5 4 2 3 3 4 5 5 5 5 3 4 3 3 3 1 3 2 3 3 2 3 7 5 5 8 7 8 4 2 2 9 11 7 7 7 6 11 15 16 16 16 17 17 18 18 19 19 19 20 19 19 17 17 18 21 21 22 22 20 19 18 18 18 19 19 19 19 20 21 22 21 19 18
2 1 3 5 4 2 3 4 4 5 4 3 3 3 5 2 3 3 3 3 2 3 5 4 4 6 8 6 6 4 2 9 12 8 6 8 8 16 18 18 18 17 16 15 16 18 19 19 19 19 19 18 18 20 20 20 20 20 19 17 17 16 17 17 17 18 18 18 20 21 22 21 20 19
3 4 4 3 2 4 5 4 3 4 3 5 5 5 3 2 3 4 3 4 2 4 3 3 4 4 6 6 4 6 3 7 10 8 8 8 11 17 16 19 17 15 15 15 16 16 17 19 20 20 19 19 19 19 19 18 16 16 16 15 14 13 14 15 15 15 16 16 20 21 21 20 20 20
5 4 4 5 6 3 4 5 5 4 3 4 4 6 5 3 4 5 4 4 6 1 2 3 3 5 4 4 6 7 6 6 9 7 5 3 11 8 8 16 17 17 17 18 18 18 17 18 20 19 19 18 18 17 15 14 14 14 14 13 13 13 16 16 16 16 16 17 18 19 20 20 20 21
5 5 4 4 4 4 4 4 3 6 6 5 6 6 6 6 5 4 3 3 5 3 2 2 1 3 5 4 6 6 6 4 3 7 7 8 5 1 5 8 16 18 19 19 18 17 17 17 16 17 16 15 14 13 12 11 10 10 10 9 9 9 9 12 14 15 15 16 18 19 20 20 21 21
6 5 5 6 4 5 6 3 4 4 4 5 4 2 4 2 4 2 2 3 3 3 2 2 2 1 4 5 2 3 3 3 2 4 4 6 5 7 6 3 6 19 18 19 20 17 17 16 14 12 10 9 9 9 9 9 8 7 8 8 8 7 7 8 9 11 11 12 14 16 18 19 20 20
6 5 3 2 4 3 3 3 5 6 6 4 5 5 2 2 3 4 4 3 4 3 1 2 3 3 2 1 3 4 6 7 5 7 6 6 5 5 3 4 8 13 18 19 16 14 12 10 10 10 10 11 11 11 10 8 6 7 8 8 7 7 8 8 9 10 11 12 13 13 13 14 14 15
5 6 8 8 6 5 3 3 5 4 2 2 5 8 6 5 6 4 6 2 1 1 4 2 3 1 2 3 4 5 7 8 7 6 7 6 7 6 3 1 6 6 16 16 10 11 13 13 12 11 11 11 10 9 6 4 5 5 5 5 6 6 6 6 6 7 8 10 10 9 9 10 11 10
4 6 7 6 6 6 3 2 4 2 4 2 2 4 5 6 7 7 6 5 2 3 5 5 4 5 5 4 4 5 6 4 5 5 5 4 3 3 3 6 4 5 5 8 9 11 11 11 11 12 11 9 8 4 1 3 3 3 3 4 5 5 5 5 6 6 6 7 7 8 8 9 9 11
2 4 5 4 4 4 4 4 3 4 3 1 3 3 1 3 6 6 6 2 3 6 6 6 6 2 5 6 5 2 3 4 5 4 4 3 2 1 3 2 1 2 3 3 3 5 6 10 11 9 8 6 3 5 4 3 2 2 1 2 3 4 4 4 4 5 5 6 6 6 7 7 8 10
3 2 2 2 2 2 2 2 2 2 2 3 3 4 5 5 3 5 4 4 4 5 7 7 7 5 4 3 6 4 2 4 4 3 1 2 1 0 1 1 1 1 1 4 10 9 7 6 7 10 8 7 7 6 8 9 9 8 7 5 4 2 2 2 3 3 3 4 4 5 6 6 7 7
2 0 1 2 3 4 4 3 3 4 3 3 4 3 2 2 3 4 4 5 3 4 3 4 4 5 5 2 3 5 3 2 2 2 2 2 2 2 1 2 4 3 2 2 1 5 6 6 5 6 7 7 10 11 10 9 7 7 6 5 4 3 1 1 2 3 3 4 4 4 5 6 6 7
3 2 1 4 4 3 5 5 4 3 2 1 1 2 2 3 4 4 4 4 4 4 4 5 6 5 4 4 4 5 4 3 1 0 1 2 3 2 2 2 2 3 3 3 4 1 3 1 5 5 4 6 10 9 10 6 8 7 6 6 4 4 2 1 1 1 2 3 3 3 4 5 6 6
2 1 4 4 4 3 2 4 3 4 4 3 1 1 0 1 2 3 4 4 3 3 4 5 5 5 5 4 5 3 1 0 1 1 1 1 2 2 2 3 3 3 4 3 3 4 2 1 0 1 6 6 8 6 4 4 5 5 6 5 5 4 3 1 1 2 2 3 3 3 3 4 5 5
4 4 3 3 5 6 6 4 6 5 5 5 3 2 2 0 1 2 2 2 3 4 5 4 4 4 6 4 2 2 0 2 3 3 3 4 2 3 3 2 1 2 2 4 1 2 2 2 0 1 2 8 8 6 5 6 8 9 7 6 5 4 3 2 1 2 3 4 4 4 5 5 4 4
5 5 4 2 1 4 1 0 1 2 3 3 1 2 3 2 1 2 1 1 2 2 3 4 4 4 2 3 3 5 4 3 4 4 4 4 4 3 4 2 1 1 1 3 1 1 3 2 3 1 2 5 5 7 9 11 8 8 7 6 5 4 3 3 3 3 3 3 3 3 4 4 4 5
5 5 4 4 5 1 6 7 7 7 4 2 2 3 3 3 4 4 4 3 2 3 4 3 5 3 1 1 2 2 1 0 2 2 4 4 3 3 4 3 1 5 3 3 1 1 2 2 1 2 4 5 5 6 9 11 8 7 6 6 6 5 5 4 4 3 3 3 3 3 3 3 4 3
3 4 4 4 4 5 7 7 8 7 6 5 3 3 4 4 6 6 5 6 6 5 3 5 6 5 6 5 4 4 3 2 2 3 4 4 5 4 3 3 3 1 4 3 1 2 4 4 2 3 2 6 4 6 9 10 8 7 8 7 8 8 6 6 5 4 4 5 4 4 4 4 3 3
3 3 4 4 2 4 5 4 6 5 6 6 6 6 5 7 7 7 5 2 1 1 2 3 3 5 5 4 5 4 4 4 3 3 4 4 4 6 5 6 4 5 3 5 3 5 5 2 5 4 2 2 3 5 8 10 9 9 9 9 9 9 9 7 7 6 6 6 6 6 5 4 4 3
1 2 3 3 4 5 3 4 4 4 4 4 7 8 7 4 3 2 1 4 5 4 3 1 0 2 2 2 3 3 3 3 4 5 6 6 5 5 6 6 5 7 4 6 6 3 3 4 5 3 4 4 3 5 4 9 11 11 11 11 10 10 9 9 9 8 8 7 8 7 6 6 5 4
2 2 1 1 3 2 3 4 4 2 3 4 6 8 9 6 5 2 1 1 3 6 8 6 6 5 4 4 3 4 2 4 3 3 5 5 4 5 6 8 6 5 5 6 6 3 3 3 4 3 3 4 3 7 6 5 9 12 12 12 11 10 9 9 10 10 9 9 8 8 8 7 6 6
2 4 8 6 3 1 2 4 3 1 2 1 3 6 8 10 7 6 2 2 4 4 2 1 3 5 5 6 8 6 4 4 3 2 4 4 5 7 5 5 5 2 4 4 6 3 3 2 1 1 3 4 3 5 7 7 8 11 9 11 11 10 10 9 10 10 9 8 8 8 9 8 6 4
2 4 7 9 3 2 5 5 3 2 1 0 1 2 4 6 6 3 6 6 3 2 2 3 3 4 7 6 4 5 9 10 9 6 7 4 4 6 6 6 4 5 1 1 2 3 2 1 1 0 0 2 3 5 8 8 6 6 6 6 6 10 11 10 10 10 9 7 6 7 8 8 6 4
8 2 3 1 3 3 7 5 4 2 4 0 0 1 2 3 5 3 6 7 7 8 5 4 3 6 6 5 6 6 6 7 8 8 7 6 6 5 5 5 4 4 1 2 0 1 1 0 3 1 2 1 1 0 3 7 7 6 6 6 5 9 11 9 8 10 10 9 8 9 10 9 7 3
5 7 4 2 3 4 2 1 1 3 4 5 2 2 3 3 3 2 4 7 10 7 6 6 6 6 6 7 8 8 7 8 8 8 8 8 7 6 6 5 6 3 0 2 3 1 1 1 2 1 3 2 1 1 2 4 5 7 7 7 7 7 6 6 5 5 9 8 8 9 8 9 9 6
6 5 7 3 1 3 3 3 2 3 5 6 4 6 8 6 3 5 4 6 6 5 5 6 6 6 6 6 7 8 9 9 9 9 9 9 9 7 6 6 5 5 1 3 4 2 1 2 3 2 2 1 2 3 3 3 4 5 6 9 9 9 8 7 6 6 6 6 6 8 8 10 10 9
7 7 5 5 8 6 7 7 7 6 8 8 8 13 12 12 8 4 6 6 6 6 6 6 7 7 8 8 7 6 6 7 7 8 8 9 9 8 7 5 5 6 4 3 5 4 3 2 1 2 3 1 3 3 3 3 3 5 5 7 6 7 8 8 8 8 7 7 8 10 8 7 9 11
7 7 4 8 11 9 8 8 7 8 8 9 14 13 14 10 5 4 6 7 7 7 7 7 7 8 8 7 7 6 6 7 2 6 5 5 5 5 5 5 6 5 6 5 4 4 4 4 3 3 3 3 3 3 4 3 3 3 7 6 5 7 7 7 7 4 8 7 7 3 5 5 6 5
6 9 13 14 13 12 11 11 9 9 12 15 15 16 16 11 4 6 6 6 6 7 7 7 7 7 6 6 6 6 5 4 5 0 3 5 4 4 4 4 5 4 4 5 5 4 4 3 4 4 3 3 4 4 4 5 4 3 3 3 4 3 3 5 4 2 3 7 8 7 7 7 6 6
11 11 12 14 14 13 12 9 7 7 10 14 16 16 13 5 6 7 6 6 6 7 6 6 7 6 6 7 8 9 10 10 9 10 9 8 6 4 5 5 4 4 5 5 4 4 5 4 4 4 4 4 4 5 4 3 4 5 3 3 2 1 1 2 1 1 2 4 4 7 8 8 8 7
9 12 12 11 15 14 17 16 14 13 13 11 9 7 6 7 7 7 5 6 6 2 2 4 4 7 7 6 7 6 6 6 7 6 6 7 8 6 6 7 8 9 8 8 8 7 5 5 5 4 4 4 5 5 6 4 5 4 4 5 2 4 1 0 2 3 3 4 4 3 3 9 8 9
8 9 11 13 9 9 8 7 5 5 5 6 6 6 6 5 5 6 8 6 3 2 2 1 1 1 2 4 3 3 4 4 5 7 7 6 7 8 7 7 7 8 9 5 2 3 4 3 3 3 4 5 5 5 4 4 4 4 4 4 2 1 0 2 3 4 5 6 3 2 1 3 4 5
7 6 7 7 8 7 6 6 7 8 9 10 10 11 10 7 5 6 5 3 3 2 2 3 4 4 2 4 4 3 3 3 4 5 7 7 8 4 2 6 9 6 7 8 7 6 5 4 5 7 8 7 4 4 3 2 3 3 4 4 3 3 3 2 2 5 4 3 2 1 3 2 2 3
4 6 6 8 11 11 11 10 9 8 8 9 10 10 11 10 9 7 7 9 9 7 5 5 5 5 6 5 5 5 5 5 5 4 3 5 4 5 3 3 5 3 5 9 7 6 5 3 2 1 4 7 5 1 1 3 4 4 4 4 3 3 5 6 4 3 2 2 4 4 3 4 3 4
5 8 8 8 9 9 9 9 9 9 9 9 9 9 9 8 8 7 6 6 6 6 5 6 6 6 7 6 6 5 5 6 6 6 5 5 5 6 7 7 7 6 5 5 5 2 5 6 4 5 3 5 8 3 3 6 6 7 6 5 2 1 2 3 2 0 1 2 2 1 2 1 6 8
7 7 8 8 8 8 10 9 10 10 9 10 10 10 9 10 10 10 11 7 4 5 6 5 7 7 6 6 6 6 6 7 7 7 8 8 8 7 6 6 5 5 5 5 6 3 0 1 2 2 3 4 3 4 5 8 3 8 7 3 1 1 0 0 0 1 1 1 2 2 1 2 3 1
8 9 8 9 8 9 9 9 8 9 9 10 10 10 9 9 9 9 9 10 10 10 10 9 8 8 8 8 8 6 6 6 6 6 7 7 8 9 7 4 5 6 5 6 6 6 3 3 3 4 2 1 4 5 5 2 8 10 1 3 1 2 1 1 1 2 3 2 2 2 1 1 4 2
9 8 9 8 9 9 9 9 9 9 10 10 10 10 10 10 10 11 11 11 10 9 9 9 8 9 8 8 9 9 8 6 4 5 5 6 7 7 8 9 10 9 5 5 5 5 3 2 1 3 4 4 5 4 5 3 1 4 3 1 2 1 1 1 2 3 4 4 3 4 4 5 7 6
8 8 9 9 9 10 10 10 9 10 10 9 9 9 9 9 9 10 10 9 9 9 9 8 8 7 8 8 8 8 9 10 9 7 6 6 6 6 6 7 8 8 8 7 6 5 3 4 5 5 5 5 6 7 6 3 4 6 6 8 4 3 1 1 8 6 5 4 2 5 6 8 7 10
7 7 7 7 7 8 8 8 9 9 9 9 9 9 9 9 9 9 8 9 8 9 8 8 8 7 7 6 6 6 6 8 8 8 8 8 7 6 7 7 6 7 7 7 7 6 7 4 5 5 6 7 5 3 4 4 3 4 4 6 7 5 2 1 1 2 7 6 2 2 1 1 2 4
7 8 9 8 8 8 8 8 8 8 8 8 9 8 9 8 9 10 9 10 8 10 9 9 8 8 8 7 7 6 6 5 6 6 6 6 6 7 8 7 7 7 7 7 7 6 4 2 5 8 3 3 2 1 1 0 3 3 5 2 2 1 2 2 4 3 2 2 5 2 1 4 5 2
8 7 7 7 8 8 7 7 7 7 7 8 7 7 8 8 8 10 9 11 11 11 11 10 10 9 9 9 9 8 7 7 7 7 6 5 6 7 6 6 7 7 6 7 8 6 6 2 2 5 3 1 2 0 1 1 3 4 4 1 1 2 3 5 4 4 2 2 0 1 2 4 5 4
8 7 6 6 6 5 6 6 6 6 6 6 6 7 7 8 9 10 10 11 11 10 10 10 11 11 11 11 11 10 9 8 8 8 8 9 8 8 7 7 7 7 6 7 6 6 5 5 6 5 2 2 3 2 2 2 1 1 2 3 1 1 4 6 8 8 7 8 7 2 1 3 2 3
7 7 7 6 6 7 5 6 6 5 4 4 5 6 7 8 9 9 10 10 10 9 9 8 8 9 10 10 11 11 10 10 10 9 9 7 7 6 7 8 9 10 10 8 8 6 6 6 6 5 3 2 1 1 3 2 2 1 1 0 1 1 5 5 5 6 5 4 7 9 14 12 6 6
7 7 7 7 6 7 7 7 7 7 5 5 5 6 7 7 8 8 10 10 10 11 10 9 9 9 10 10 10 10 10 11 11 9 9 9 9 8 7 7 7 8 9 8 7 8 8 7 5 6 5 5 3 1 1 1 3 3 1 0 3 2 4 3 5 5 3 3 7 11 11 10 11 12
Wind_Direction
205 190 244 279 270 281 296 298 288 282 298 304 295 297 278 266 291 294 296 290 302 333 342 348 343 340 350 343 26 83 154 158 168 163 151 168 177 199 202 208 213 216 219 223 227 229 231 233 234 236 237 239 240 241 241 242 242 242 243 243 240 237 234 232 231 231 231 231 230 232 236 238 238 237
345 237 233 221 226 280 307 315 317 311 316 277 265 295 300 347 334 314 305 290 331 325 324 310 311 340 334 339 335 327 306 172 170 155 175 170 191 196 201 208 211 213 214 217 223 227 230 230 231 231 233 234 235 237 240 242 244 245 245 244 243 242 240 239 237 236 234 233 233 235 237 237 237 236
274 270 278 311 269 230 245 257 283 303 305 312 299 269 217 207 252 266 254 273 255 227 273 329 327 317 312 317 289 294 326 160 168 186 192 195 196 190 201 205 209 214 215 217 220 222 224 227 227 228 229 231 233 237 240 244 246 247 248 248 247 246 247 248 246 244 241 237 240 240 241 239 239 238
235 223 228 229 234 218 204 228 239 252 272 271 282 297 311 276 239 221 236 243 274 277 280 280 312 304 299 312 12 9 352 353 323 336 317 273 239 174 199 202 203 209 214 217 219 218 220 223 225 227 230 233 235 239 241 241 241 242 241 243 242 241 246 247 247 246 245 244 245 245 245 244 243 242
272 267 236 242 237 215 239 247 207 203 224 232 229 231 238 261 274 272 246 248 264 275 222 231 269 297 314 331 357 344 343 341 346 327 318 340 351 249 187 197 207 208 213 217 219 218 218 221 225 227 230 234 238 243 245 244 242 238 239 238 239 239 241 248 250 249 249 247 247 248 247 246 246 246
292 286 297 300 301 336 315 40 340 326 343 326 313 50 358 328 312 334 339 294 277 281 301 302 266 326 29 327 308 280 300 311 307 287 312 327 326 299 310 293 227 213 215 218 216 214 216 220 225 235 245 250 255 258 258 263 266 275 277 269 263 258 256 255 258 258 261 261 258 256 254 253 252 251
283 295 306 321 313 301 301 319 299 293 298 320 315 312 316 329 306 297 299 290 275 289 309 17 326 5 332 308 295 317 319 298 295 290 282 267 248 257 277 307 302 218 223 223 219 215 218 220 225 227 231 237 241 241 246 251 264 267 264 269 274 275 267 261 262 263 263 263 263 265 271 270 270 264
325 345 327 308 291 265 241 242 246 258 279 25 327 318 321 327 317 297 265 285 11 304 284 271 295 239 253 244 241 250 248 263 254 248 262 248 245 247 203 311 294 225 219 221 209 204 206 210 213 219 226 232 235 242 246 250 254 259 272 275 276 272 275 273 269 269 270 270 271 280 283 284 281 283
271 255 249 269 289 312 303 326 316 309 297 313 328 284 295 308 302 293 313 318 306 311 271 270 248 264 258 258 264 246 258 268 285 267 256 269 305 264 169 194 155 130 162 184 204 206 205 205 209 217 226 231 237 252 295 279 283 310 322 312 298 293 289 285 280 278 275 277 284 287 286 285 284 284
317 338 312 322 334 331 334 324 316 336 338 98 270 315 322 258 271 284 289 282 280 266 282 288 287 238 267 265 244 257 256 245 262 297 294 279 214 339 12 346 230 192 125 142 162 222 215 218 217 214 217 216 179 165 183 157 113 107 36 359 340 332 313 297 284 274 270 271 273 274 275 275 279 281
302 259 288 323 323 301 298 309 7 17 11 347 282 225 269 296 285 274 250 229 249 266 262 266 259 270 255 257 276 266 254 273 260 265 353 341 12 104 249 286 289 334 194 181 183 190 195 195 197 213 202 177 155 130 123 111 106 98 98 102 93 74 12 331 314 299 283 272 263 262 263 267 269 273
253 178 351 357 11 40 48 34 38 30 17 359 340 342 331 307 273 280 317 316 293 260 263 255 262 248 259 251 271 280 279 315 304 103 195 272 332 319 240 234 264 238 222 220 172 136 140 180 136 127 156 147 113 115 107 109 114 122 124 127 124 124 118 262 277 277 277 272 270 265 265 265 266 269
331 324 46 60 80 78 83 77 78 102 110 25 341 346 352 335 335 328 312 292 262 252 251 254 246 267 281 276 285 288 274 238 194 305 260 251 249 273 304 292 25 32 68 40 26 116 139 126 135 156 129 117 126 125 127 130 134 141 145 138 137 127 126 138 265 272 271 267 267 267 265 266 267 269
306 285 96 126 120 123 121 113 133 156 158 172 226 197 196 359 336 320 320 315 328 304 290 287 299 287 280 279 263 276 306 4 206 248 288 284 287 316 305 285 53 351 59 60 34 352 1 98 187 128 146 138 132 151 157 177 161 164 155 157 145 148 142 164 267 299 299 297 283 272 266 259 264 263
0 23 61 133 173 177 178 174 184 201 186 170 193 178 63 31 271 318 326 316 328 321 317 315 290 279 276 280 251 227 177 15 23 360 335 314 325 288 274 254 204 339 65 70 53 295 313 328 100 133 114 138 147 152 165 161 157 164 169 160 153 150 169 177 223 260 288 300 306 313 313 311 307 304
12 14 354 349 275 80 332 284 271 217 217 227 164 103 145 159 190 207 205 316 311 321 324 306 307 303 338 3 48 35 17 2 4 353 329 302 282 262 259 256 225 180 111 126 146 274 280 213 124 196 194 142 134 146 157 167 168 163 158 159 159 169 179 186 194 211 228 244 262 271 286 295 304 306
5 355 354 345 350 115 29 28 18 356 353 288 324 276 234 236 218 232 253 235 237 307 305 304 302 322 44 22 87 139 134 287 295 285 283 278 291 292 259 219 163 146 176 105 83 257 287 330 187 188 196 149 129 136 149 162 155 143 152 167 176 180 191 193 194 209 214 240 239 240 251 254 272 280
0 2 348 352 354 23 43 22 13 357 345 348 288 238 227 215 222 225 219 234 239 236 265 323 332 6 9 359 11 21 12 19 345 334 308 335 325 317 309 328 320 248 121 129 136 292 267 228 194 225 208 142 157 152 158 155 150 165 176 185 185 190 190 187 192 203 214 222 226 241 243 253 260 275
4 31 8 342 345 56 57 37 18 360 345 333 315 299 258 216 189 193 191 182 64 52 16 351 341 345 3 0 1 7 22 35 3 349 323 310 297 298 302 309 280 273 171 141 144 224 251 183 182 211 145 108 119 140 161 162 166 178 193 192 194 197 187 188 187 196 203 207 216 223 234 234 247 260
65 36 4 344 345 83 89 62 53 40 325 317 327 321 320 353 6 66 37 120 146 157 144 133 266 313 325 331 331 346 350 7 14 353 330 311 294 290 284 268 263 245 205 151 164 228 255 224 207 204 165 165 156 154 158 191 179 187 196 195 198 197 201 198 196 194 199 207 213 218 218 223 231 232
129 111 170 314 280 140 135 148 116 90 15 340 336 333 330 322 286 194 92 224 197 184 165 175 191 211 240 262 270 264 27 64 33 355 325 284 277 261 258 263 265 223 174 183 169 193 235 233 196 193 182 173 197 160 189 178 201 196 197 196 195 200 211 217 207 197 201 206 213 217 211 214 217 222
166 177 204 206 229 191 110 127 118 93 64 29 337 339 340 333 348 27 15 290 269 322 352 205 235 252 250 245 242 243 245 175 159 172 247 280 325 292 273 276 288 298 158 176 183 186 235 251 167 205 224 191 209 173 171 179 198 200 213 203 194 200 209 219 233 220 202 206 215 231 227 210 206 210
174 193 222 215 208 36 130 143 148 183 217 137 349 345 333 320 326 350 346 328 308 245 253 256 232 242 231 228 231 235 222 201 195 198 221 252 273 291 300 304 316 307 67 331 191 225 256 220 269 206 296 246 237 196 162 183 182 187 194 193 211 224 208 217 228 241 217 200 211 242 254 233 192 226
336 306 218 98 94 140 159 161 166 196 265 203 142 3 295 311 300 353 331 317 325 327 303 287 226 226 231 221 225 233 225 212 206 210 217 223 225 245 279 284 278 266 164 245 13 148 279 274 282 281 212 200 287 237 173 172 193 198 175 178 184 231 219 218 231 234 235 198 206 226 239 250 209 246
331 342 4 140 169 178 184 159 84 307 305 315 308 260 254 256 253 343 298 306 317 302 294 281 275 256 234 221 216 223 226 220 210 212 218 224 221 221 236 264 281 298 275 226 192 148 230 257 270 290 277 215 209 278 222 209 204 190 180 181 192 215 199 211 216 213 222 211 215 225 233 241 234 218
326 339 356 50 58 340 337 325 307 276 274 286 278 262 255 263 243 276 281 288 282 285 289 297 293 287 269 255 231 221 221 220 212 208 213 215 224 218 206 219 247 274 198 243 173 162 150 254 227 237 271 289 278 215 266 257 234 229 171 187 193 190 190 202 203 198 180 188 221 227 218 231 234 214
323 331 29 56 35 348 315 302 297 286 277 274 251 257 271 273 281 295 279 275 278 274 275 278 280 280 286 288 285 271 241 230 209 206 208 214 212 207 208 206 216 233 243 188 207 213 160 223 245 248 258 262 269 293 282 271 267 225 193 191 198 193 192 198 201 184 174 186 222 215 196 223 228 228
305 306 336 325 317 296 275 262 257 268 266 261 271 276 275 291 307 270 281 274 267 269 268 270 269 272 274 277 278 282 294 295 249 193 207 224 206 208 203 208 217 233 248 247 241 236 189 197 227 240 228 245 253 251 259 279 300 220 197 229 210 203 205 184 213 181 176 198 208 157 171 210 237 212
315 320 314 312 311 308 291 267 258 261 258 256 259 266 270 274 276 271 261 267 268 270 269 265 267 270 271 271 271 273 293 317 323 271 236 217 214 207 217 223 224 227 223 228 227 235 247 228 217 218 239 245 237 247 244 256 257 233 225 275 269 239 190 191 186 196 163 178 163 179 182 192 212 192
302 309 312 307 304 302 297 290 271 261 265 261 259 257 255 234 227 241 245 257 268 267 279 291 289 295 307 317 336 343 357 345 348 342 330 318 318 332 308 282 288 276 250 237 228 228 231 238 239 219 222 247 240 251 244 267 281 265 252 225 225 213 165 155 158 258 179 207 205 183 191 191 199 188
343 326 320 307 296 286 284 283 276 273 277 281 277 267 242 223 231 240 233 238 260 290 310 312 343 360 350 351 13 15 4 353 339 333 306 304 302 321 332 325 285 268 250 232 220 216 222 224 227 218 225 232 241 243 252 238 254 280 294 283 253 221 217 202 229 212 223 209 228 246 172 181 193 198
321 314 307 304 298 294 291 287 289 281 266 260 268 272 267 254 233 226 233 259 271 208 205 195 119 44 338 344 30 8 7 352 341 343 332 305 272 261 274 275 280 276 267 272 320 292 260 280 287 275 250 232 235 238 222 232 249 259 268 281 303 313 298 240 230 232 251 248 225 211 159 183 192 209
297 302 306 294 294 293 302 321 346 357 354 352 347 343 345 341 351 24 4 324 291 318 4 13 19 17 7 10 21 23 9 356 346 348 325 305 288 280 238 264 276 299 328 336 335 339 5 352 26 340 334 2 29 22 2 333 286 258 254 274 270 297 314 288 323 290 254 214 218 324 285 253 232 216
286 307 327 355 9 11 15 13 12 8 13 11 10 8 10 21 23 18 19 13 345 345 10 22 14 358 347 3 353 340 350 342 339 327 310 307 312 306 278 273 282 297 301 298 309 315 309 5 56 359 309 282 256 227 355 307 293 293 272 258 235 229 241 240 229 252 282 208 200 231 257 269 280 359
357 12 23 22 14 4 11 16 8 13 18 19 16 13 13 19 23 21 25 29 335 7 5 24 22 13 16 8 1 352 344 339 325 330 332 343 347 332 312 290 278 275 251 243 265 277 299 301 304 297 280 290 302 310 323 279 267 270 269 276 266 303 322 322 315 178 65 4 351 315 287 347 53 19
20 26 24 26 23 16 20 19 17 17 15 17 17 15 17 14 14 14 5 344 345 18 10 23 26 8 7 1 358 0 359 359 356 360 351 343 326 298 257 255 261 254 242 255 268 277 155 65 36 9 323 304 304 312 273 299 297 232 244 239 140 182 194 348 353 320 48 52 95 107 70 353 359 341
28 27 29 25 26 25 21 18 18 20 13 16 13 11 14 12 12 14 8 8 12 10 11 13 14 2 1 354 347 346 350 2 1 358 355 348 350 341 331 305 266 257 253 250 250 249 187 195 156 117 96 238 238 245 269 295 320 315 218 214 199 86 74 271 307 327 264 175 137 114 105 43 275 179
30 24 23 25 24 23 19 16 13 17 20 22 18 6 9 12 10 4 6 5 5 2 4 7 7 1 356 358 353 347 340 343 347 351 352 358 358 353 342 340 339 334 308 289 272 240 209 208 173 158 158 205 243 249 268 294 25 291 289 264 106 248 283 282 301 271 281 249 175 165 158 212 241 215
24 26 21 25 25 22 18 16 14 15 17 17 19 12 9 11 13 7 7 5 360 1 0 3 3 358 354 357 357 352 350 346 344 344 354 353 343 331 329 330 330 322 323 316 316 288 223 208 205 183 182 190 225 236 218 185 225 248 240 224 153 165 169 284 270 259 253 253 215 188 190 218 226 233
21 24 26 26 29 25 22 19 14 13 15 12 15 9 7 6 12 7 3 5 1 357 355 350 348 346 349 345 345 348 344 349 343 346 343 337 333 329 325 320 310 306 307 307 307 311 297 261 187 211 192 203 203 182 153 183 227 259 261 246 227 224 226 167 140 23 296 279 251 155 111 35 292 256
15 22 23 19 20 23 19 19 15 10 14 7 8 5 9 3 14 8 4 4 0 1 352 347 342 343 339 334 335 335 331 322 322 318 317 317 321 324 321 319 309 307 299 288 278 273 284 107 206 206 209 224 207 124 58 357 288 264 271 248 247 34 315 154 186 206 227 354 356 357 146 225 238 262
13 22 25 26 22 23 17 15 16 12 14 6 6 4 7 6 10 4 7 7 2 360 358 351 349 344 341 337 331 325 320 312 309 309 302 312 312 307 301 294 291 289 295 304 310 312 319 301 189 203 200 85 7 62 270 294 338 323 310 219 198 146 211 254 235 186 171 188 204 38 334 344 340 315
15 7 17 24 25 23 17 13 16 14 13 3 8 11 13 14 8 10 12 6 3 1 1 355 356 351 346 343 340 334 325 316 309 306 315 317 313 306 307 304 305 312 310 303 292 293 298 311 310 276 191 165 189 167 166 148 206 291 330 11 353 299 252 224 214 229 224 205 210 183 272 232 217 250
9 9 3 13 14 8 6 9 2 2 16 4 8 21 25 26 13 12 8 2 358 355 354 353 352 348 344 338 335 334 334 332 324 318 316 314 313 325 328 329 330 328 325 321 323 325 330 326 312 312 335 302 242 168 189 173 202 204 235 206 206 281 279 294 293 254 230 216 249 227 227 242 232 224
5 7 7 358 10 2 359 8 0 349 2 10 15 27 38 32 21 17 10 3 354 348 347 345 346 343 340 337 336 333 330 329 328 330 325 320 319 316 310 311 314 315 313 316 327 326 321 310 336 348 350 332 331 313 256 194 212 174 164 15 306 252 250 248 263 276 271 288 255 256 256 247 246 255